owner,sensor,date,latitude,longitude,vertical_datum,sea_water_practical_salinity,qcFlag 
SCCF RECON,ioos:station:SCCF:12:1,2012-11-01T00:00:00Z,26.4966,-82.1479,2.339,35.1,1111122 
SCCF RECON,ioos:station:SCCF:12:1,2012-11-01T01:00:00Z,26.4966,-82.1479,2.349,34.99,1111122 
SCCF RECON,ioos:station:SCCF:12:1,2012-11-01T02:00:00Z,26.4966,-82.1479,2.41,34.93,1111122 
SCCF RECON,ioos:station:SCCF:12:1,2012-11-01T03:00:00Z,26.4966,-82.1479,2.51,34.92,1111122 
SCCF RECON,ioos:station:SCCF:12:1,2012-11-01T04:00:00Z,26.4966,-82.1479,2.614,35.0,1111122 
SCCF RECON,ioos:station:SCCF:12:1,2012-11-01T05:00:00Z,26.4966,-82.1479,2.7,35.11,1111122 
SCCF RECON,ioos:station:SCCF:12:1,2012-11-01T06:00:00Z,26.4966,-82.1479,2.74,35.08,1111122 
SCCF RECON,ioos:station:SCCF:12:1,2012-11-01T07:00:00Z,26.4966,-82.1479,2.72,35.1,1111122 
SCCF RECON,ioos:station:SCCF:12:1,2012-11-01T08:00:00Z,26.4966,-82.1479,2.634,34.99,1111122 
SCCF RECON,ioos:station:SCCF:12:1,2012-11-01T09:00:00Z,26.4966,-82.1479,2.52,34.89,1111122 
SCCF RECON,ioos:station:SCCF:12:1,2012-11-01T10:00:00Z,26.4966,-82.1479,2.38,34.89,1111122 
SCCF RECON,ioos:station:SCCF:12:1,2012-11-01T11:00:00Z,26.4966,-82.1479,2.25,34.89,1111122 
SCCF RECON,ioos:station:SCCF:12:1,2012-11-01T12:00:00Z,26.4966,-82.1479,2.13,34.91,1111122 
SCCF RECON,ioos:station:SCCF:12:1,2012-11-01T13:00:00Z,26.4966,-82.1479,2.036,35.01,1111122 
SCCF RECON,ioos:station:SCCF:12:1,2012-11-01T14:00:00Z,26.4966,-82.1479,1.99,35.1,1111122 
SCCF RECON,ioos:station:SCCF:12:1,2012-11-01T15:00:00Z,26.4966,-82.1479,2.06,34.97,1111122 
SCCF RECON,ioos:station:SCCF:12:1,2012-11-01T16:00:00Z,26.4966,-82.1479,2.22,34.94,1111122 
SCCF RECON,ioos:station:SCCF:12:1,2012-11-01T17:00:00Z,26.4966,-82.1479,2.38,34.94,1111122 
SCCF RECON,ioos:station:SCCF:12:1,2012-11-01T18:00:00Z,26.4966,-82.1479,2.47,34.88,1111122 
SCCF RECON,ioos:station:SCCF:12:1,2012-11-01T19:00:00Z,26.4966,-82.1479,2.522,34.95,1111122 
SCCF RECON,ioos:station:SCCF:12:1,2012-11-01T20:00:00Z,26.4966,-82.1479,2.534,35.03,1111122 
SCCF RECON,ioos:station:SCCF:12:1,2012-11-01T21:00:00Z,26.4966,-82.1479,2.5,34.92,1111122 
SCCF RECON,ioos:station:SCCF:12:1,2012-11-01T22:00:00Z,26.4966,-82.1479,2.421,34.89,1111122 
SCCF RECON,ioos:station:SCCF:12:1,2012-11-01T23:00:00Z,26.4966,-82.1479,2.37,34.84,1111122 
SCCF RECON,ioos:station:SCCF:12:1,2012-11-02T00:00:00Z,26.4966,-82.1479,2.34,34.8,1111122 
SCCF RECON,ioos:station:SCCF:12:1,2012-11-02T01:00:00Z,26.4966,-82.1479,2.36,34.87,1111122 
SCCF RECON,ioos:station:SCCF:12:1,2012-11-02T02:00:00Z,26.4966,-82.1479,2.407,34.93,1111122 
SCCF RECON,ioos:station:SCCF:12:1,2012-11-02T03:00:00Z,26.4966,-82.1479,2.48,34.93,1111122 
SCCF RECON,ioos:station:SCCF:12:1,2012-11-02T04:00:00Z,26.4966,-82.1479,2.57,34.91,1111122 
SCCF RECON,ioos:station:SCCF:12:1,2012-11-02T05:00:00Z,26.4966,-82.1479,2.64,34.88,1111122 
SCCF RECON,ioos:station:SCCF:12:1,2012-11-02T06:00:00Z,26.4966,-82.1479,2.69,34.82,1111122 
SCCF RECON,ioos:station:SCCF:12:1,2012-11-02T07:00:00Z,26.4966,-82.1479,2.69,34.82,1111122 
SCCF RECON,ioos:station:SCCF:12:1,2012-11-02T08:00:00Z,26.4966,-82.1479,2.64,34.87,1111122 
SCCF RECON,ioos:station:SCCF:12:1,2012-11-02T09:00:00Z,26.4966,-82.1479,2.54,34.91,1111122 
SCCF RECON,ioos:station:SCCF:12:1,2012-11-02T10:00:00Z,26.4966,-82.1479,2.42,34.91,1111122 
SCCF RECON,ioos:station:SCCF:12:1,2012-11-02T11:00:00Z,26.4966,-82.1479,2.28,34.91,1111122 
SCCF RECON,ioos:station:SCCF:12:1,2012-11-02T12:00:00Z,26.4966,-82.1479,2.16,34.89,1111122 
SCCF RECON,ioos:station:SCCF:12:1,2012-11-02T13:00:00Z,26.4966,-82.1479,2.05,34.91,1111122 
SCCF RECON,ioos:station:SCCF:12:1,2012-11-02T14:00:00Z,26.4966,-82.1479,1.971,34.89,1111122 
SCCF RECON,ioos:station:SCCF:12:1,2012-11-02T15:00:00Z,26.4966,-82.1479,1.951,34.85,1111122 
SCCF RECON,ioos:station:SCCF:12:1,2012-11-02T16:00:00Z,26.4966,-82.1479,2.041,34.77,1111122 
SCCF RECON,ioos:station:SCCF:12:1,2012-11-02T17:00:00Z,26.4966,-82.1479,2.187,34.7,1111122 
SCCF RECON,ioos:station:SCCF:12:1,2012-11-02T18:00:00Z,26.4966,-82.1479,2.305,34.7,1111122 
SCCF RECON,ioos:station:SCCF:12:1,2012-11-02T19:00:00Z,26.4966,-82.1479,2.39,34.72,1111122 
SCCF RECON,ioos:station:SCCF:12:1,2012-11-02T20:00:00Z,26.4966,-82.1479,2.43,34.78,1111122 
SCCF RECON,ioos:station:SCCF:12:1,2012-11-02T21:00:00Z,26.4966,-82.1479,2.431,34.81,1111122 
SCCF RECON,ioos:station:SCCF:12:1,2012-11-02T22:00:00Z,26.4966,-82.1479,2.398,34.84,1111122 
SCCF RECON,ioos:station:SCCF:12:1,2012-11-02T23:00:00Z,26.4966,-82.1479,2.349,34.75,1111122 
SCCF RECON,ioos:station:SCCF:12:1,2012-11-03T00:00:00Z,26.4966,-82.1479,2.301,34.7,1111122 
SCCF RECON,ioos:station:SCCF:12:1,2012-11-03T01:00:00Z,26.4966,-82.1479,2.285,34.62,1111122 
SCCF RECON,ioos:station:SCCF:12:1,2012-11-03T02:00:00Z,26.4966,-82.1479,2.3,34.77,1111122 
SCCF RECON,ioos:station:SCCF:12:1,2012-11-03T03:00:00Z,26.4966,-82.1479,2.353,34.81,1111122 
SCCF RECON,ioos:station:SCCF:12:1,2012-11-03T04:00:00Z,26.4966,-82.1479,2.431,34.72,1111122 
SCCF RECON,ioos:station:SCCF:12:1,2012-11-03T05:00:00Z,26.4966,-82.1479,2.51,34.56,1111122 
SCCF RECON,ioos:station:SCCF:12:1,2012-11-03T06:00:00Z,26.4966,-82.1479,2.572,34.49,1111122 
SCCF RECON,ioos:station:SCCF:12:1,2012-11-03T07:00:00Z,26.4966,-82.1479,2.6,34.47,1111122 
SCCF RECON,ioos:station:SCCF:12:1,2012-11-03T08:00:00Z,26.4966,-82.1479,2.601,34.52,1111122 
SCCF RECON,ioos:station:SCCF:12:1,2012-11-03T09:00:00Z,26.4966,-82.1479,2.54,34.49,1111122 
SCCF RECON,ioos:station:SCCF:12:1,2012-11-03T10:00:00Z,26.4966,-82.1479,2.43,34.46,1111122 
SCCF RECON,ioos:station:SCCF:12:1,2012-11-03T11:00:00Z,26.4966,-82.1479,2.318,34.49,1111122 
SCCF RECON,ioos:station:SCCF:12:1,2012-11-03T12:00:00Z,26.4966,-82.1479,2.195,34.49,1111122 
SCCF RECON,ioos:station:SCCF:12:1,2012-11-03T13:00:00Z,26.4966,-82.1479,2.089,34.47,1111122 
SCCF RECON,ioos:station:SCCF:12:1,2012-11-03T14:00:00Z,26.4966,-82.1479,2.0,34.54,1111122 
SCCF RECON,ioos:station:SCCF:12:1,2012-11-03T15:00:00Z,26.4966,-82.1479,1.94,34.55,1111122 
SCCF RECON,ioos:station:SCCF:12:1,2012-11-03T16:00:00Z,26.4966,-82.1479,1.96,34.47,1111122 
SCCF RECON,ioos:station:SCCF:12:1,2012-11-03T17:00:00Z,26.4966,-82.1479,2.08,34.37,1111122 
SCCF RECON,ioos:station:SCCF:12:1,2012-11-03T18:00:00Z,26.4966,-82.1479,2.216,34.26,1111122 
SCCF RECON,ioos:station:SCCF:12:1,2012-11-03T19:00:00Z,26.4966,-82.1479,2.325,34.28,1111122 
SCCF RECON,ioos:station:SCCF:12:1,2012-11-03T20:00:00Z,26.4966,-82.1479,2.39,34.43,1111122 
SCCF RECON,ioos:station:SCCF:12:1,2012-11-03T21:00:00Z,26.4966,-82.1479,2.42,34.49,1111122 
SCCF RECON,ioos:station:SCCF:12:1,2012-11-03T22:00:00Z,26.4966,-82.1479,2.41,34.64,1111122 
SCCF RECON,ioos:station:SCCF:12:1,2012-11-03T23:00:00Z,26.4966,-82.1479,2.38,34.61,1111122 
SCCF RECON,ioos:station:SCCF:12:1,2012-11-04T00:00:00Z,26.4966,-82.1479,2.33,34.59,1111122 
SCCF RECON,ioos:station:SCCF:12:1,2012-11-04T01:00:00Z,26.4966,-82.1479,2.32,34.58,1111122 
SCCF RECON,ioos:station:SCCF:12:1,2012-11-04T02:00:00Z,26.4966,-82.1479,2.33,34.49,1111122 
SCCF RECON,ioos:station:SCCF:12:1,2012-11-04T03:00:00Z,26.4966,-82.1479,2.37,34.54,1111122 
SCCF RECON,ioos:station:SCCF:12:1,2012-11-04T04:00:00Z,26.4966,-82.1479,2.42,34.58,1111122 
SCCF RECON,ioos:station:SCCF:12:1,2012-11-04T05:00:00Z,26.4966,-82.1479,2.48,34.58,1111122 
SCCF RECON,ioos:station:SCCF:12:1,2012-11-04T06:00:00Z,26.4966,-82.1479,2.55,34.42,1111122 
SCCF RECON,ioos:station:SCCF:12:1,2012-11-04T07:00:00Z,26.4966,-82.1479,2.59,34.26,1111122 
SCCF RECON,ioos:station:SCCF:12:1,2012-11-04T08:00:00Z,26.4966,-82.1479,2.6,34.27,1111122 
SCCF RECON,ioos:station:SCCF:12:1,2012-11-04T09:00:00Z,26.4966,-82.1479,2.57,34.29,1111122 
SCCF RECON,ioos:station:SCCF:12:1,2012-11-04T10:00:00Z,26.4966,-82.1479,2.5,34.32,1111122 
SCCF RECON,ioos:station:SCCF:12:1,2012-11-04T11:00:00Z,26.4966,-82.1479,2.42,34.41,1111122 
SCCF RECON,ioos:station:SCCF:12:1,2012-11-04T12:00:00Z,26.4966,-82.1479,2.31,34.36,1111122 
SCCF RECON,ioos:station:SCCF:12:1,2012-11-04T13:00:00Z,26.4966,-82.1479,2.189,34.34,1111122 
SCCF RECON,ioos:station:SCCF:12:1,2012-11-04T14:00:00Z,26.4966,-82.1479,2.084,34.3,1111122 
SCCF RECON,ioos:station:SCCF:12:1,2012-11-04T15:00:00Z,26.4966,-82.1479,2.0,34.26,1111122 
SCCF RECON,ioos:station:SCCF:12:1,2012-11-04T16:00:00Z,26.4966,-82.1479,1.97,34.29,1111122 
SCCF RECON,ioos:station:SCCF:12:1,2012-11-04T17:00:00Z,26.4966,-82.1479,2.041,34.24,1111122 
SCCF RECON,ioos:station:SCCF:12:1,2012-11-04T18:00:00Z,26.4966,-82.1479,2.168,34.23,1111122 
SCCF RECON,ioos:station:SCCF:12:1,2012-11-04T19:00:00Z,26.4966,-82.1479,2.279,34.22,1111122 
SCCF RECON,ioos:station:SCCF:12:1,2012-11-04T20:00:00Z,26.4966,-82.1479,2.344,34.24,1111122 
SCCF RECON,ioos:station:SCCF:12:1,2012-11-04T21:00:00Z,26.4966,-82.1479,2.39,34.24,1111122 
SCCF RECON,ioos:station:SCCF:12:1,2012-11-04T22:00:00Z,26.4966,-82.1479,2.402,34.22,1111122 
SCCF RECON,ioos:station:SCCF:12:1,2012-11-04T23:00:00Z,26.4966,-82.1479,2.401,34.24,1111122 
SCCF RECON,ioos:station:SCCF:12:1,2012-11-05T00:00:00Z,26.4966,-82.1479,2.39,34.25,1111122 
SCCF RECON,ioos:station:SCCF:12:1,2012-11-05T01:00:00Z,26.4966,-82.1479,2.36,34.27,1111122 
SCCF RECON,ioos:station:SCCF:12:1,2012-11-05T02:00:00Z,26.4966,-82.1479,2.35,34.25,1111122 
SCCF RECON,ioos:station:SCCF:12:1,2012-11-05T03:00:00Z,26.4966,-82.1479,2.361,34.25,1111122 
SCCF RECON,ioos:station:SCCF:12:1,2012-11-05T04:00:00Z,26.4966,-82.1479,2.37,34.22,1111122 
SCCF RECON,ioos:station:SCCF:12:1,2012-11-05T05:00:00Z,26.4966,-82.1479,2.39,34.21,1111122 
SCCF RECON,ioos:station:SCCF:12:1,2012-11-05T06:00:00Z,26.4966,-82.1479,2.44,34.2,1111122 
SCCF RECON,ioos:station:SCCF:12:1,2012-11-05T07:00:00Z,26.4966,-82.1479,2.5,34.21,1111122 
SCCF RECON,ioos:station:SCCF:12:1,2012-11-05T08:00:00Z,26.4966,-82.1479,2.54,34.2,1111122 
SCCF RECON,ioos:station:SCCF:12:1,2012-11-05T09:00:00Z,26.4966,-82.1479,2.53,34.18,1111122 
SCCF RECON,ioos:station:SCCF:12:1,2012-11-05T10:00:00Z,26.4966,-82.1479,2.49,34.19,1111122 
SCCF RECON,ioos:station:SCCF:12:1,2012-11-05T11:00:00Z,26.4966,-82.1479,2.43,34.2,1111122 
SCCF RECON,ioos:station:SCCF:12:1,2012-11-05T12:00:00Z,26.4966,-82.1479,2.35,34.21,1111122 
SCCF RECON,ioos:station:SCCF:12:1,2012-11-05T13:00:00Z,26.4966,-82.1479,2.239,34.22,1111122 
SCCF RECON,ioos:station:SCCF:12:1,2012-11-05T14:00:00Z,26.4966,-82.1479,2.13,34.2,1111122 
SCCF RECON,ioos:station:SCCF:12:1,2012-11-05T15:00:00Z,26.4966,-82.1479,2.041,34.18,1111122 
SCCF RECON,ioos:station:SCCF:12:1,2012-11-05T16:00:00Z,26.4966,-82.1479,1.968,34.17,1111122 
SCCF RECON,ioos:station:SCCF:12:1,2012-11-05T17:00:00Z,26.4966,-82.1479,1.94,34.13,1111122 
SCCF RECON,ioos:station:SCCF:12:1,2012-11-05T18:00:00Z,26.4966,-82.1479,2.01,34.12,1111122 
SCCF RECON,ioos:station:SCCF:12:1,2012-11-05T19:00:00Z,26.4966,-82.1479,2.131,34.1,1111122 
SCCF RECON,ioos:station:SCCF:12:1,2012-11-05T20:00:00Z,26.4966,-82.1479,2.24,34.16,1111122 
SCCF RECON,ioos:station:SCCF:12:1,2012-11-05T21:00:00Z,26.4966,-82.1479,2.309,34.11,1111122 
SCCF RECON,ioos:station:SCCF:12:1,2012-11-05T22:00:00Z,26.4966,-82.1479,2.37,34.09,1111122 
SCCF RECON,ioos:station:SCCF:12:1,2012-11-05T23:00:00Z,26.4966,-82.1479,2.4,34.07,1111122 
SCCF RECON,ioos:station:SCCF:12:1,2012-11-06T00:00:00Z,26.4966,-82.1479,2.4,33.99,1111122 
SCCF RECON,ioos:station:SCCF:12:1,2012-11-06T01:00:00Z,26.4966,-82.1479,2.365,34.04,1111122 
SCCF RECON,ioos:station:SCCF:12:1,2012-11-06T02:00:00Z,26.4966,-82.1479,2.338,33.99,1111122 
SCCF RECON,ioos:station:SCCF:12:1,2012-11-06T03:00:00Z,26.4966,-82.1479,2.33,33.94,1111122 
SCCF RECON,ioos:station:SCCF:12:1,2012-11-06T04:00:00Z,26.4966,-82.1479,2.34,33.95,1111122 
SCCF RECON,ioos:station:SCCF:12:1,2012-11-06T05:00:00Z,26.4966,-82.1479,2.352,34.0,1111122 
SCCF RECON,ioos:station:SCCF:12:1,2012-11-06T06:00:00Z,26.4966,-82.1479,2.36,34.01,1111122 
SCCF RECON,ioos:station:SCCF:12:1,2012-11-06T07:00:00Z,26.4966,-82.1479,2.39,34.06,1111122 
SCCF RECON,ioos:station:SCCF:12:1,2012-11-06T08:00:00Z,26.4966,-82.1479,2.46,34.05,1111122 
SCCF RECON,ioos:station:SCCF:12:1,2012-11-06T09:00:00Z,26.4966,-82.1479,2.53,34.08,1111122 
SCCF RECON,ioos:station:SCCF:12:1,2012-11-06T10:00:00Z,26.4966,-82.1479,2.55,34.07,1111122 
SCCF RECON,ioos:station:SCCF:12:1,2012-11-06T11:00:00Z,26.4966,-82.1479,2.53,34.07,1111122 
SCCF RECON,ioos:station:SCCF:12:1,2012-11-06T12:00:00Z,26.4966,-82.1479,2.48,33.99,1111122 
SCCF RECON,ioos:station:SCCF:12:1,2012-11-06T13:00:00Z,26.4966,-82.1479,2.4,33.96,1111122 
SCCF RECON,ioos:station:SCCF:12:1,2012-11-06T14:00:00Z,26.4966,-82.1479,2.304,33.99,1111122 
SCCF RECON,ioos:station:SCCF:12:1,2012-11-06T15:00:00Z,26.4966,-82.1479,2.208,33.8,1111122 
SCCF RECON,ioos:station:SCCF:12:1,2012-11-06T16:00:00Z,26.4966,-82.1479,2.13,33.3,1111122 
SCCF RECON,ioos:station:SCCF:12:1,2012-11-06T17:00:00Z,26.4966,-82.1479,2.11,33.44,1111122 
SCCF RECON,ioos:station:SCCF:12:1,2012-11-06T18:00:00Z,26.4966,-82.1479,2.117,33.38,1111122 
SCCF RECON,ioos:station:SCCF:12:1,2012-11-06T19:00:00Z,26.4966,-82.1479,2.12,33.43,1111122 
SCCF RECON,ioos:station:SCCF:12:1,2012-11-06T20:00:00Z,26.4966,-82.1479,2.19,33.9,1111122 
SCCF RECON,ioos:station:SCCF:12:1,2012-11-06T21:00:00Z,26.4966,-82.1479,2.3,33.96,1111122 
SCCF RECON,ioos:station:SCCF:12:1,2012-11-06T22:00:00Z,26.4966,-82.1479,2.4,33.97,1111122 
SCCF RECON,ioos:station:SCCF:12:1,2012-11-06T23:00:00Z,26.4966,-82.1479,2.451,33.99,1111122 
SCCF RECON,ioos:station:SCCF:12:1,2012-11-07T00:00:00Z,26.4966,-82.1479,2.47,33.49,1111122 
SCCF RECON,ioos:station:SCCF:12:1,2012-11-07T01:00:00Z,26.4966,-82.1479,2.45,33.44,1111122 
SCCF RECON,ioos:station:SCCF:12:1,2012-11-07T02:00:00Z,26.4966,-82.1479,2.416,33.27,1111122 
SCCF RECON,ioos:station:SCCF:12:1,2012-11-07T03:00:00Z,26.4966,-82.1479,2.389,33.24,1111122 
SCCF RECON,ioos:station:SCCF:12:1,2012-11-07T04:00:00Z,26.4966,-82.1479,2.379,33.23,1111122 
SCCF RECON,ioos:station:SCCF:12:1,2012-11-07T05:00:00Z,26.4966,-82.1479,2.335,33.19,1111122 
SCCF RECON,ioos:station:SCCF:12:1,2012-11-07T06:00:00Z,26.4966,-82.1479,2.258,33.23,1111122 
SCCF RECON,ioos:station:SCCF:12:1,2012-11-07T07:00:00Z,26.4966,-82.1479,2.231,33.28,1111122 
SCCF RECON,ioos:station:SCCF:12:1,2012-11-07T08:00:00Z,26.4966,-82.1479,2.249,33.4,1111122 
SCCF RECON,ioos:station:SCCF:12:1,2012-11-07T09:00:00Z,26.4966,-82.1479,2.332,33.45,1111122 
SCCF RECON,ioos:station:SCCF:12:1,2012-11-07T10:00:00Z,26.4966,-82.1479,2.404,33.7,1111122 
SCCF RECON,ioos:station:SCCF:12:1,2012-11-07T11:00:00Z,26.4966,-82.1479,2.443,34.03,1111122 
SCCF RECON,ioos:station:SCCF:12:1,2012-11-07T12:00:00Z,26.4966,-82.1479,2.401,34.07,1111122 
SCCF RECON,ioos:station:SCCF:12:1,2012-11-07T13:00:00Z,26.4966,-82.1479,2.333,34.13,1111122 
SCCF RECON,ioos:station:SCCF:12:1,2012-11-07T14:00:00Z,26.4966,-82.1479,2.254,34.13,1111122 
SCCF RECON,ioos:station:SCCF:12:1,2012-11-07T15:00:00Z,26.4966,-82.1479,2.151,34.19,1111122 
SCCF RECON,ioos:station:SCCF:12:1,2012-11-07T16:00:00Z,26.4966,-82.1479,2.061,34.18,1111122 
SCCF RECON,ioos:station:SCCF:12:1,2012-11-07T17:00:00Z,26.4966,-82.1479,2.017,34.17,1111122 
SCCF RECON,ioos:station:SCCF:12:1,2012-11-07T18:00:00Z,26.4966,-82.1479,1.99,34.29,1111122 
SCCF RECON,ioos:station:SCCF:12:1,2012-11-07T19:00:00Z,26.4966,-82.1479,1.966,34.21,1111122 
SCCF RECON,ioos:station:SCCF:12:1,2012-11-07T20:00:00Z,26.4966,-82.1479,1.988,34.34,1111122 
SCCF RECON,ioos:station:SCCF:12:1,2012-11-07T21:00:00Z,26.4966,-82.1479,2.051,34.51,1111122 
SCCF RECON,ioos:station:SCCF:12:1,2012-11-07T22:00:00Z,26.4966,-82.1479,2.138,34.6,1111122 
SCCF RECON,ioos:station:SCCF:12:1,2012-11-07T23:00:00Z,26.4966,-82.1479,2.229,34.69,1111122 
SCCF RECON,ioos:station:SCCF:12:1,2012-11-08T00:00:00Z,26.4966,-82.1479,2.315,34.81,1111122 
SCCF RECON,ioos:station:SCCF:12:1,2012-11-08T01:00:00Z,26.4966,-82.1479,2.383,34.85,1111122 
SCCF RECON,ioos:station:SCCF:12:1,2012-11-08T02:00:00Z,26.4966,-82.1479,2.422,34.88,1111122 
SCCF RECON,ioos:station:SCCF:12:1,2012-11-08T03:00:00Z,26.4966,-82.1479,2.396,34.88,1111122 
SCCF RECON,ioos:station:SCCF:12:1,2012-11-08T04:00:00Z,26.4966,-82.1479,2.307,34.87,1111122 
SCCF RECON,ioos:station:SCCF:12:1,2012-11-08T05:00:00Z,26.4966,-82.1479,2.244,34.87,1111122 
SCCF RECON,ioos:station:SCCF:12:1,2012-11-08T06:00:00Z,26.4966,-82.1479,2.205,34.88,1111122 
SCCF RECON,ioos:station:SCCF:12:1,2012-11-08T07:00:00Z,26.4966,-82.1479,2.174,34.87,1111122 
SCCF RECON,ioos:station:SCCF:12:1,2012-11-08T08:00:00Z,26.4966,-82.1479,2.212,34.82,1111122 
SCCF RECON,ioos:station:SCCF:12:1,2012-11-08T09:00:00Z,26.4966,-82.1479,2.27,34.8,1111122 
SCCF RECON,ioos:station:SCCF:12:1,2012-11-08T10:00:00Z,26.4966,-82.1479,2.262,34.79,1111122 
SCCF RECON,ioos:station:SCCF:12:1,2012-11-08T11:00:00Z,26.4966,-82.1479,2.341,34.74,1111122 
SCCF RECON,ioos:station:SCCF:12:1,2012-11-08T12:00:00Z,26.4966,-82.1479,2.363,34.66,1111122 
SCCF RECON,ioos:station:SCCF:12:1,2012-11-08T13:00:00Z,26.4966,-82.1479,2.367,34.56,1111122 
SCCF RECON,ioos:station:SCCF:12:1,2012-11-08T14:00:00Z,26.4966,-82.1479,2.361,34.51,1111122 
SCCF RECON,ioos:station:SCCF:12:1,2012-11-08T15:00:00Z,26.4966,-82.1479,2.316,34.55,1111122 
SCCF RECON,ioos:station:SCCF:12:1,2012-11-08T16:00:00Z,26.4966,-82.1479,2.245,34.56,1111122 
SCCF RECON,ioos:station:SCCF:12:1,2012-11-08T17:00:00Z,26.4966,-82.1479,2.141,34.52,1111122 
SCCF RECON,ioos:station:SCCF:12:1,2012-11-08T18:00:00Z,26.4966,-82.1479,2.049,34.34,1111122 
SCCF RECON,ioos:station:SCCF:12:1,2012-11-08T19:00:00Z,26.4966,-82.1479,1.992,34.34,1111122 
SCCF RECON,ioos:station:SCCF:12:1,2012-11-08T20:00:00Z,26.4966,-82.1479,1.964,34.48,1111122 
SCCF RECON,ioos:station:SCCF:12:1,2012-11-08T21:00:00Z,26.4966,-82.1479,2.003,34.38,1111122 
SCCF RECON,ioos:station:SCCF:12:1,2012-11-08T22:00:00Z,26.4966,-82.1479,2.096,34.33,1111122 
SCCF RECON,ioos:station:SCCF:12:1,2012-11-08T23:00:00Z,26.4966,-82.1479,2.211,34.44,1111122 
SCCF RECON,ioos:station:SCCF:12:1,2012-11-09T00:00:00Z,26.4966,-82.1479,2.324,34.35,1111122 
SCCF RECON,ioos:station:SCCF:12:1,2012-11-09T01:00:00Z,26.4966,-82.1479,2.416,34.35,1111122 
SCCF RECON,ioos:station:SCCF:12:1,2012-11-09T02:00:00Z,26.4966,-82.1479,2.448,34.44,1111122 
SCCF RECON,ioos:station:SCCF:12:1,2012-11-09T03:00:00Z,26.4966,-82.1479,2.425,34.56,1111122 
SCCF RECON,ioos:station:SCCF:12:1,2012-11-09T04:00:00Z,26.4966,-82.1479,2.346,34.56,1111122 
SCCF RECON,ioos:station:SCCF:12:1,2012-11-09T05:00:00Z,26.4966,-82.1479,2.249,34.54,1111122 
SCCF RECON,ioos:station:SCCF:12:1,2012-11-09T06:00:00Z,26.4966,-82.1479,2.147,34.41,1111122 
SCCF RECON,ioos:station:SCCF:12:1,2012-11-09T07:00:00Z,26.4966,-82.1479,2.055,34.44,1111122 
SCCF RECON,ioos:station:SCCF:12:1,2012-11-09T08:00:00Z,26.4966,-82.1479,1.992,34.4,1111122 
SCCF RECON,ioos:station:SCCF:12:1,2012-11-09T09:00:00Z,26.4966,-82.1479,1.978,34.39,1111122 
SCCF RECON,ioos:station:SCCF:12:1,2012-11-09T10:00:00Z,26.4966,-82.1479,2.04,34.38,1111122 
SCCF RECON,ioos:station:SCCF:12:1,2012-11-09T11:00:00Z,26.4966,-82.1479,2.161,34.47,1111122 
SCCF RECON,ioos:station:SCCF:12:1,2012-11-09T12:00:00Z,26.4966,-82.1479,2.273,34.32,1111122 
SCCF RECON,ioos:station:SCCF:12:1,2012-11-09T13:00:00Z,26.4966,-82.1479,2.356,34.28,1111122 
SCCF RECON,ioos:station:SCCF:12:1,2012-11-09T14:00:00Z,26.4966,-82.1479,2.385,34.29,1111122 
SCCF RECON,ioos:station:SCCF:12:1,2012-11-09T15:00:00Z,26.4966,-82.1479,2.34,34.38,1111122 
SCCF RECON,ioos:station:SCCF:12:1,2012-11-09T16:00:00Z,26.4966,-82.1479,2.262,34.55,1111122 
SCCF RECON,ioos:station:SCCF:12:1,2012-11-09T17:00:00Z,26.4966,-82.1479,2.175,34.55,1111122 
SCCF RECON,ioos:station:SCCF:12:1,2012-11-09T18:00:00Z,26.4966,-82.1479,2.087,34.66,1111122 
SCCF RECON,ioos:station:SCCF:12:1,2012-11-09T19:00:00Z,26.4966,-82.1479,2.01,34.65,1111122 
SCCF RECON,ioos:station:SCCF:12:1,2012-11-09T20:00:00Z,26.4966,-82.1479,1.965,34.54,1111122 
SCCF RECON,ioos:station:SCCF:12:1,2012-11-09T21:00:00Z,26.4966,-82.1479,1.965,34.54,1111122 
SCCF RECON,ioos:station:SCCF:12:1,2012-11-09T22:00:00Z,26.4966,-82.1479,2.031,34.44,1111122 
SCCF RECON,ioos:station:SCCF:12:1,2012-11-09T23:00:00Z,26.4966,-82.1479,2.17,34.36,1111122 
SCCF RECON,ioos:station:SCCF:12:1,2012-11-10T00:00:00Z,26.4966,-82.1479,2.3,34.33,1111122 
SCCF RECON,ioos:station:SCCF:12:1,2012-11-10T01:00:00Z,26.4966,-82.1479,2.4,34.33,1111122 
SCCF RECON,ioos:station:SCCF:12:1,2012-11-10T02:00:00Z,26.4966,-82.1479,2.47,34.36,1111122 
SCCF RECON,ioos:station:SCCF:12:1,2012-11-10T03:00:00Z,26.4966,-82.1479,2.49,34.37,1111122 
SCCF RECON,ioos:station:SCCF:12:1,2012-11-10T04:00:00Z,26.4966,-82.1479,2.43,34.38,1111122 
SCCF RECON,ioos:station:SCCF:12:1,2012-11-10T05:00:00Z,26.4966,-82.1479,2.328,34.58,1111122 
SCCF RECON,ioos:station:SCCF:12:1,2012-11-10T06:00:00Z,26.4966,-82.1479,2.2,34.62,1111122 
SCCF RECON,ioos:station:SCCF:12:1,2012-11-10T07:00:00Z,26.4966,-82.1479,2.08,34.62,1111122 
SCCF RECON,ioos:station:SCCF:12:1,2012-11-10T08:00:00Z,26.4966,-82.1479,2.0,34.58,1111122 
SCCF RECON,ioos:station:SCCF:12:1,2012-11-10T09:00:00Z,26.4966,-82.1479,1.955,34.48,1111122 
SCCF RECON,ioos:station:SCCF:12:1,2012-11-10T10:00:00Z,26.4966,-82.1479,1.984,34.33,1111122 
SCCF RECON,ioos:station:SCCF:12:1,2012-11-10T11:00:00Z,26.4966,-82.1479,2.078,34.39,1111122 
SCCF RECON,ioos:station:SCCF:12:1,2012-11-10T12:00:00Z,26.4966,-82.1479,2.22,34.46,1111122 
SCCF RECON,ioos:station:SCCF:12:1,2012-11-10T13:00:00Z,26.4966,-82.1479,2.348,34.53,1111122 
SCCF RECON,ioos:station:SCCF:12:1,2012-11-10T14:00:00Z,26.4966,-82.1479,2.435,34.58,1111122 
SCCF RECON,ioos:station:SCCF:12:1,2012-11-10T15:00:00Z,26.4966,-82.1479,2.481,34.62,1111122 
SCCF RECON,ioos:station:SCCF:12:1,2012-11-10T16:00:00Z,26.4966,-82.1479,2.47,34.42,1111122 
SCCF RECON,ioos:station:SCCF:12:1,2012-11-10T17:00:00Z,26.4966,-82.1479,2.389,34.35,1111122 
SCCF RECON,ioos:station:SCCF:12:1,2012-11-10T18:00:00Z,26.4966,-82.1479,2.27,34.28,1111122 
SCCF RECON,ioos:station:SCCF:12:1,2012-11-10T19:00:00Z,26.4966,-82.1479,2.17,34.29,1111122 
SCCF RECON,ioos:station:SCCF:12:1,2012-11-10T20:00:00Z,26.4966,-82.1479,2.09,34.3,1111122 
SCCF RECON,ioos:station:SCCF:12:1,2012-11-10T21:00:00Z,26.4966,-82.1479,2.091,34.21,1111122 
SCCF RECON,ioos:station:SCCF:12:1,2012-11-10T22:00:00Z,26.4966,-82.1479,2.148,34.15,1111122 
SCCF RECON,ioos:station:SCCF:12:1,2012-11-10T23:00:00Z,26.4966,-82.1479,2.24,34.1,1111122 
SCCF RECON,ioos:station:SCCF:12:1,2012-11-11T00:00:00Z,26.4966,-82.1479,2.37,34.43,1111122 
SCCF RECON,ioos:station:SCCF:12:1,2012-11-11T01:00:00Z,26.4966,-82.1479,2.47,34.42,1111122 
SCCF RECON,ioos:station:SCCF:12:1,2012-11-11T02:00:00Z,26.4966,-82.1479,2.54,34.45,1111122 
SCCF RECON,ioos:station:SCCF:12:1,2012-11-11T03:00:00Z,26.4966,-82.1479,2.57,34.41,1111122 
SCCF RECON,ioos:station:SCCF:12:1,2012-11-11T04:00:00Z,26.4966,-82.1479,2.54,34.2,1111122 
SCCF RECON,ioos:station:SCCF:12:1,2012-11-11T05:00:00Z,26.4966,-82.1479,2.44,33.98,1111122 
SCCF RECON,ioos:station:SCCF:12:1,2012-11-11T06:00:00Z,26.4966,-82.1479,2.3,33.94,1111122 
SCCF RECON,ioos:station:SCCF:12:1,2012-11-11T07:00:00Z,26.4966,-82.1479,2.16,33.36,1111122 
SCCF RECON,ioos:station:SCCF:12:1,2012-11-11T08:00:00Z,26.4966,-82.1479,2.035,33.05,1111122 
SCCF RECON,ioos:station:SCCF:12:1,2012-11-11T09:00:00Z,26.4966,-82.1479,1.927,33.24,1111122 
SCCF RECON,ioos:station:SCCF:12:1,2012-11-11T10:00:00Z,26.4966,-82.1479,1.86,33.33,1111122 
SCCF RECON,ioos:station:SCCF:12:1,2012-11-11T11:00:00Z,26.4966,-82.1479,1.906,33.46,1111122 
SCCF RECON,ioos:station:SCCF:12:1,2012-11-11T12:00:00Z,26.4966,-82.1479,2.065,33.97,1111122 
SCCF RECON,ioos:station:SCCF:12:1,2012-11-11T13:00:00Z,26.4966,-82.1479,2.229,34.17,1111122 
SCCF RECON,ioos:station:SCCF:12:1,2012-11-11T14:00:00Z,26.4966,-82.1479,2.362,34.29,1111122 
SCCF RECON,ioos:station:SCCF:12:1,2012-11-11T15:00:00Z,26.4966,-82.1479,2.462,33.96,1111122 
SCCF RECON,ioos:station:SCCF:12:1,2012-11-11T16:00:00Z,26.4966,-82.1479,2.53,33.75,1111122 
SCCF RECON,ioos:station:SCCF:12:1,2012-11-11T17:00:00Z,26.4966,-82.1479,2.526,33.43,1111122 